Tributaries of Morava river

Břeclav-Ladná (Thaya)

Date and time (UTC) H (cm) Q (m³/s)
19. 5. 2021 03:20 130 82.6
19. 5. 2021 03:00 130 83
19. 5. 2021 02:00 129 82
19. 5. 2021 01:00 130 83
19. 5. 2021 00:00 130 83
18. 5. 2021 23:00 130 83
18. 5. 2021 22:00 130 83
18. 5. 2021 21:00 130 83
18. 5. 2021 20:00 130 83
18. 5. 2021 19:00 130 83
18. 5. 2021 18:00 130 83
18. 5. 2021 17:00 131 83
18. 5. 2021 16:00 131 83
18. 5. 2021 15:00 132 84

H - water level, Q - discharge

Dluhonice (Bečva)

Date and time (UTC) H (cm) Q (m³/s)
19. 5. 2021 03:20 218 83.8
19. 5. 2021 03:00 218 84
19. 5. 2021 02:00 220 86
19. 5. 2021 01:00 221 87
19. 5. 2021 00:00 223 89
18. 5. 2021 23:00 223 89
18. 5. 2021 22:00 220 86
18. 5. 2021 21:00 233 98
18. 5. 2021 20:00 237 102
18. 5. 2021 19:00 239 104
18. 5. 2021 18:00 239 104
18. 5. 2021 17:00 241 106
18. 5. 2021 16:00 244 109
18. 5. 2021 15:00 249 113

H - water level, Q - discharge
Source data
Labe Basin Vltava Basin Povodí Moravy ČHMÚ